(2020 KA6) |
Classification: Apollo [NEO] SPK-ID: 54017276 |
[ hide orbit diagram ]
For accurate long-term ephemerides, please instead use our Horizons system.This orbit viewer was implemented using two-body methods, and hence should not be used for determining accurate long-term trajectories (over several years or decades) or planetary encounter circumstances.
Orbital Elements at Epoch 2459000.5 (2020-May-31.0) TDB
Reference: JPL 3 (heliocentric ecliptic J2000)
Element | Value | Uncertainty (1-sigma) | Units |
e | .5967366923991352 | 0.0001889 | |
a | 2.36816146322893 | 0.0010741 | au |
q | .9549926245946022 | 1.4253e-05 | au |
i | 3.688153756908379 | 0.00039174 | deg |
node | 64.65957476694744 | 0.0002613 | deg |
peri | 228.4475908225756 | 0.0010513 | deg |
M | 350.614705422369 | 0.006834 | deg |
tp | 2459035.202502882950 (2020-Jul-04.70250288) | 0.0016785 | TDB |
period | 1331.114429550014 3.64 | 0.90559 0.002479 | d yr |
n | .2704500770243313 | 0.00018399 | deg/d |
Q | 3.781330301863258 | 0.001715 | au |
|
| | Orbit Determination Parameters
Additional Information
|
[ show covariance matrix ]
Physical Parameter Table
Parameter |
Symbol |
Value |
Units |
Sigma |
Reference |
Notes |
absolute magnitude |
H |
26.7 |
|
.3801 |
E2020V92 |
autocmod 2.8 |
|
[ show close-approach data ]
|